カタログに戻る

PRAETORIAN SDA_604

運用中軍事PO
NORAD 65567·PAYLOAD·🇺🇸 United States

打ち上げ Sep 10, 2025 から Vandenberg Space Force Base

Loading…

次のパス (今後24時間)

TLE

最新Source: Space-Track

元期: Sep 14, 2026, 11:40 UTC

1 65567U 25203C   26257.48651800  .00000055  00000-0  39698-4 0  9994
2 65567  81.3026 288.5839 0004810 329.0218  31.0654 13.83056380 51026

AllMySatでPRAETORIAN SDA_604をリアルタイム追跡

Download on the App Store